Home > Weather > Escuintla > Past weeks

Flag for Guatemala Past Weather in Escuintla, Guatemala — Yesterday and Last 2 Weeks

Now
66 °F

Thunderstorms. Broken clouds.


Feels Like: 66 °F
Forecast: 69 / 88 °F
Wind: 7 mph from West

Location: Guatemala Aeropuertola Aurora

Current Time: Jul 23, 2016 at 7:10:46 PM

Latest Report: Jul 23, 2016 at 6:00 PM


Visibility: N/A

Pressure: 30.24 "Hg

Humidity: 88%

Dew Point: 63 °F

Location of EscuintlaLocation

Past Weather in Escuintla — Graph

°F

Escuintla Temperature Yesterday

Maximum temperature yesterday: 81 °F (at 2:00 PM)
Minimum temperature yesterday: 63 °F (at 3:00 AM)
Average temperature yesterday: 70 °F

High & Low Weather Summary for the Past Weeks

 TemperatureHumidityPressure
High81 °F (Jul 21, 2:00 PM)94% (Jul 8, 10:00 PM)30.39 "Hg (Jul 8, 10:00 PM)
Low61 °F (Jul 19, 5:00 AM)45% (Jul 14, 2:00 PM)29.59 "Hg (Jul 17, 11:00 PM)
Average69 °F77%30.30 "Hg
* Reported Jul 8 6:00 PM — Jul 23 6:00 PM, Escuintla, Weather by CustomWeather, © 2016

Note: Actual official high and low records may vary slightly from our data, if they occured in-between our weather recording intervals... More about our weather records

Advertising

Escuintla Weather History for the Previous 24 Hours

Scroll right to see more
 ConditionsComfort  
Time TempWeatherWind HumidityBarometerVisibility
6:00 PM
Sat, Jul 23
70 °FScattered clouds.9 mph78%30.21 "HgN/A
5:00 PM73 °FBroken clouds.12 mph65%30.18 "HgN/A
4:00 PM75 °FPartly sunny.5 mph61%30.21 "HgN/A
3:00 PM75 °FPartly sunny.9 mph65%30.21 "HgN/A
2:00 PM75 °FBroken clouds.12 mph61%30.24 "HgN/A
1:00 PM77 °FScattered clouds.12 mph57%30.27 "HgN/A
12:00 PM75 °FScattered clouds.16 mph61%30.30 "HgN/A
11:00 AM73 °FPartly sunny.12 mph65%30.33 "HgN/A
10:00 AM72 °FScattered clouds.14 mph65%30.33 "HgN/A
9:00 AM68 °FScattered clouds.12 mph73%30.33 "HgN/A
8:00 AM66 °FPartly sunny.14 mph83%30.33 "HgN/A
7:00 AM64 °FScattered clouds.12 mph88%30.30 "HgN/A
6:00 AM63 °FScattered clouds.9 mph94%30.27 "HgN/A
5:00 AM63 °FPassing clouds.9 mph94%30.27 "HgN/A
4:00 AM63 °FPassing clouds.14 mph94%30.27 "HgN/A
3:00 AM63 °FPassing clouds.12 mph94%30.27 "HgN/A
2:00 AM64 °FPassing clouds.14 mph88%30.30 "HgN/A
1:00 AM64 °FPassing clouds.12 mph94%30.33 "HgN/A
12:00 AM66 °FPassing clouds.14 mph88%30.36 "HgN/A
11:00 PM
Fri, Jul 22
68 °FPassing clouds.14 mph83%30.36 "HgN/A
10:00 PM68 °FPassing clouds.14 mph78%30.33 "HgN/A
9:00 PM70 °FPassing clouds.14 mph73%30.33 "HgN/A
8:00 PM72 °FPassing clouds.16 mph69%30.30 "HgN/A
7:00 PM73 °FPassing clouds.14 mph65%30.27 "HgN/A
Weather by CustomWeather, © 2016

See weather overviewHow to use our weather pages